Tracking 19817 objects as of 19-Aug-2019
HD Live streaming from Space Station
objects crossing your sky now

NSTAR A

Track NSTAR A now!
NSTAR A is classified as:


NORAD ID: 23651
Int'l Code: 1995-044A
Perigee: 36,041.4 km
Apogee: 36,194.2 km
Inclination: 10.3 °
Period: 1,452.7 minutes
Semi major axis: 42488 km
RCS: 15.8489 m2 (large)
Launch date: August 29, 1995
Source: Japan (JPN)
Launch site: FRENCH GUIANA (FRGUI)

Voice and TV broadcast to Japan and neighboring region.
aabbcc
Your satellite tracking list
Your tracking list is empty




NASA's NSSDC Master Catalog

Two Line Element Set (TLE):
1 23651U 95044A   19229.11900164  .00000041  00000-0  00000+0 0  9998
2 23651  10.2930  37.6908 0017980 322.2521  51.7740  0.99126979 87224
Source of the keplerian elements: AFSPC